Regional Weather Roundup
Issued by NWS Green Bay, WI

Home | Current Version | Previous Version | Text Only | Print | Product List | Glossary On
Versions: 1 2 3 4 5 6 7 8 9 10 11 12 13 14 15 16 17 18 19 20 21 22 23 24 25 26 27 28 29 30 31 32 33 34 35 36 37 38 39 40 41 42 43 44 45 46 47 48 49 50
000
ASUS43 KGRB 240610
RWRGRB

NORTH-CENTRAL AND NORTHEAST WISCONSIN REGIONAL WEATHER ROUNDUP
NATIONAL WEATHER SERVICE GREEN BAY WI
100 AM CDT THU APR 24 2014

WIZ005-009-010>012-018-019-240700-
NORTH CENTRAL WISCONSIN

CITY           SKY/WX    TMP DP  RH WIND       PRES   REMARKS
IRONWOOD       CLOUDY    46  23  39 S6        30.01S
MANITOWISH WTR CLOUDY    41  21  45 S5        30.05R
ARBOR VITAE    CLOUDY    42  17  36 S5        30.05S
EAGLE RIVER    CLOUDY    40  12  32 SE3       30.06S
LAND O LAKES   CLOUDY    40  10  28 SE5       30.07S
RHINELANDER    CLOUDY    40  19  43 SE6       30.07R
PHILLIPS       LGT RAIN  37  34  89 SE9       30.05R
ANTIGO         CLOUDY    38  15  39 S7        30.08R
TOMAHAWK       RAIN      36  31  82 SE5       30.08R
MERRILL        LGT RAIN  37  31  77 SE3       30.08R
$$

WIZ013-073-240700-
NORTHEAST WISCONSIN

CITY           SKY/WX    TMP DP  RH WIND       PRES   REMARKS
IRON MOUNTAIN    N/A     38  14  37 CALM      30.09S
MARINETTE        N/A     36  19  51 NE5       30.11F
OCONTO         MOCLDY    39  20  46 CALM      30.10F
$$

WIZ017-030-035>037-045-240700-
CENTRAL WISCONSIN

CITY           SKY/WX    TMP DP  RH WIND       PRES   REMARKS
MEDFORD        DRIZZLE   38  34  86 E6        30.05R
WAUSAU         LGT RAIN  40  25  55 E9        30.06R
MOSINEE        CLOUDY    41  18  38 E7        30.07R
MARSHFIELD     LGT RAIN  38  31  76 SE10      30.06R
WISC RAPIDS    LGT RAIN  37  33  85 SE5       30.09R
STEVENS POINT  CLOUDY    40  16  37 E7        30.07R
WAUPACA        CLOUDY    43   9  24 E5        30.09S
SHAWANO        CLOUDY    39  26  57 NE3       30.09S
CLINTONVILLE   CLOUDY    41  14  33 CALM      30.09S
$$

WIZ038-039-048-051-240700-
FOX VALLEY

CITY           SKY/WX    TMP DP  RH WIND       PRES   REMARKS
NWS GREEN BAY  CLOUDY    41  20  43 E6        30.10F
APPLETON       CLOUDY    41  12  30 E6        30.09R
OSHKOSH        CLOUDY    41  18  39 E8        30.08S
FOND DU LAC    CLOUDY    41   9  26 E3        30.08R
$$

WIZ022-050-052-240700-
EAST CENTRAL WISCONSIN

CITY           SKY/WX    TMP DP  RH WIND       PRES   REMARKS
STURGEON BAY     N/A     39  16  38 E7        30.11F
MANITOWOC      CLOUDY    39  21  48 NE3       30.10F
SHEBOYGAN      CLOUDY    38  22  52 NE6       30.09S
$$

LMZ563-521-522-541>543-240700-
LAKESHORE

STATION/POSITION TIME  TEMP    WIND        PRES    VSBY  WAVE
                       AIR SEA DIR/SP/G                  HT/PER
                 (UTC) (F)     (DEG/KT/KT) (MB)    (MI)  (FT/S)
SHEBOYGAN LKSHOR 0600   39      10/  8/  9 1019.9F
KEWAUNEE LKSHORE 0600   38      50/  5/  6 1020.1F
NORTHPORT PIER   0600   35        CALM     1020.3S
SISTER BAY LKSHO 0600   34        CALM       N/A
MENOMINEE LKSHOR 0600   33     360/  5/  5 1020.4S
$$



USA.gov is the U.S. government's official web portal to all federal, state and local government web resources and services.